THOR ABLESTAR DEB, 158

Orbit data source: Space-Track

THOR ABLESTAR DEB, 158 is space debris in LEO originally from a launch on Thu, 29 Jun 1961 UTC launched from the Air Force Eastern Test Range (AFETR). Debris objects in space refer to the collection of defunct objects orbiting the Earth. Examples of debris include non-operational satellites, rocket bodies, and fragments generated from explosions, collisions, or faulty payload assembly.

Loading next visibility...
Identifier
158, 1961-015AU
Orbit
LEO
Country
Flag of USUS
Related business
Manufacturer
Unknown
Mission
Spacecraft
Bus & Motor
Unknown
Mass
Unknown
Launch date (UTC)
1961-06-29 (65 years ago)
Launch vehicle
Unknown
Launch site
Air Force Eastern Test Range (AFETR)
Object type
Payload
Rocket body
Debris
Shape & HBR
Unknown shape, 0.2 m
Radar Cross Section
Medium (>0.1 m² and <1 m²)

Expand to show TLE details & history
Last TLE update: 1 day ago

TLE from 1 day ago
0 THOR ABLESTAR DEB
1   158U 61015AU  26197.30548789 -.00000041  00000-0  34482-4 0  9997
2   158  67.0731 155.9865 0613475 226.6461 128.1869 12.66243952  8904
Epoch: 2026-07-16T07:19Z
TLE epoch observation values (Epoch: 2026-07-16T07:19:54.153Z)
Latitude
0.00003°
Longitude
111.86203°
Altitude
1,711.243 km
Speed
6.879 km/s
True Right ascension
10h 23m 56s
True Declination
0° 00' 00"
Sunlit
Object was in daylight at epoch
Visualization orbit readout
Latitude
Unknown
Longitude
Unknown
Altitude
Unknown
Speed
Unknown
Apparent Right ascension
Unknown
Apparent Declination
Unknown
Sunlit
N/A
Visualization observer readout
Local Sidereal Time
20:46:05
Azimuth
Unknown
Elevation
Unknown
Doppler factor
Unknown
Orbital elements
Apogee altitude
1,872.639 km
Perigee altitude
918.824 km
Semi-major axis
7,773.869 km
Eccentricity
0.06135
Inclination
67.0731°
RAAN
155.9865°
Arg. of periapsis
226.6461°
True anomaly
133.45449°
Mean anomaly
128.1869°
Eccentric anomaly
130.84586°
Mean motion
3.16656 °/min
Orbital period
113.69 mins
BSTAR
0.000034482
Loading maneuver chart data...
Computing Atmospheric mass density...
Loading historical data...
Loading historical data...
Loading historical data...
Loading historical data...
Loading historical data...
Loading historical data...
Loading historical data...

Documentation

Showing up to 5 results
|